Regional Weather Roundup
Issued by NWS

Home | Current Version | Previous Version | Graphics & Text | Print | Product List | Glossary On
Versions: 1 2 3 4 5 6 7 8 9 10 11 12 13 14 15 16 17 18 19 20 21 22 23 24 25 26 27
000
ASUS45 KCYS 270110
RWRWY

WYOMING REGIONAL WEATHER ROUNDUP
NATIONAL WEATHER SERVICE CHEYENNE WY
700 PM MDT MON JUN 26 2017

NOTE:  "FAIR" INDICATES FEW OR NO CLOUDS BELOW 12,000 FEET
WITH NO SIGNIFICANT WEATHER AND/OR OBSTRUCTIONS TO VISIBILITY.

WYZ001-270200-
YELLOWSTONE NATIONAL PARK

CITY           SKY/WX    TMP DP  RH WIND       PRES   REMARKS
LK YELLOWSTONE   N/A     73  28  18 VRB7      30.22F
W YELLOWSTONE  NOT AVBL

$$
WYZ002>013-054>058-071-098>099-270200-
NORTHERN WYOMING

CITY           SKY/WX    TMP DP  RH WIND       PRES   REMARKS
JACKSON        SUNNY     81  36  19 S12       30.07F
CODY           FAIR      86  28  12 E18       29.94F
GREYBULL       FAIR      93  23   8 S13       29.85F
WORLAND        FAIR      89  30  12 S7        29.88F
SHERIDAN       FAIR      87  44  22 SE7       29.90F
BUFFALO        FAIR      85  39  19 E8        29.99F
GILLETTE       FAIR      84  38  19 SE20G28   29.98F
NEWCASTLE      FAIR      79  34  19 SE16G22   30.05F

$$
WYZ014>020-022>026-101>103-270200-
CENTRAL WYOMING

CITY           SKY/WX    TMP DP  RH WIND       PRES   REMARKS
BIG PINEY      FAIR      80  31  16 E9        30.15F
PINEDALE       FAIR      77  28  16 NE7       30.17F
DUBOIS         FAIR      75  30  19 SW20      30.13F
LANDER         FAIR      83  43  24 NW5       30.02F
RIVERTON       FAIR      86  29  12 W8        30.01F
CASPER         FAIR      86  32  14 E12G18    30.03F
DOUGLAS        FAIR      80  42  25 SE16      30.07F

$$
WYZ021-027>030-104>119-270200-
SOUTHERN WYOMING

CITY           SKY/WX    TMP DP  RH WIND       PRES   REMARKS
EVANSTON       FAIR      82  34  17 SW10      30.16F
KEMMERER         N/A     81  30  16 SW7G16    30.18F
FORT BRIDGER   PTCLDY    82  36  18 SE12      30.19F
ROCK SPRINGS   PTSUNNY   80  26  13 W12G43    30.15S
DIXON          FAIR      84  22  10 W3        30.15F
RAWLINS        FAIR      84  20   9 SW14G20   30.14F
SARATOGA       FAIR      81  23  12 CALM      30.18F
LARAMIE        FAIR      79  20  11 SE8       30.21S
CHEYENNE       FAIR      79  38  22 SE14      30.16F
TORRINGTON     FAIR      81  38  21 SE12      30.05F
PINE BLUFFS    FAIR      79  45  29 E14       30.12S

$$




USA.gov is the U.S. government's official web portal to all federal, state and local government web resources and services.